THY3FM EDDN-LTFM

Flight info

Callsign THY3FM
Flight time 1h 3m
Altitude 35000
Route RODIS1G RODIS L604 LAMSI DCT PESAT DCT OGVUN DCT DUZLA DCT MAVIR DCT GOVIN DCT PADGU DCT OVDOT DCT NULGO DCT TIMUR L606 GASRU T390 RILEX
Aircraft A320/M-SDE3FGHIRWY/LB1

Departure

Time 2026-05-04 10:16
Airport Nuremberg Airport (EDDN)

Arrival

Time 2026-05-04 11:19
Airport İstanbul Airport (LTFM)
Time Latitude Longitude Altitude Speed Heading
2026-05-04 09:52 49.49524 11.07725 1026 ft 0 kts 188°
2026-05-04 10:00 49.49585 11.07727 1027 ft 2 kts 136°
2026-05-04 10:00 49.49593 11.07709 1027 ft 1 kts 104°
2026-05-04 10:02 49.49594 11.07695 1027 ft 0 kts 97°
2026-05-04 10:04 49.49593 11.07698 1027 ft 0 kts 97°
2026-05-04 10:05 49.49593 11.07705 1027 ft 0 kts 97°
2026-05-04 10:05 49.49591 11.07720 1027 ft 1 kts 97°
2026-05-04 10:05 49.49589 11.07743 1027 ft 2 kts 97°
2026-05-04 10:05 49.49587 11.07773 1027 ft 3 kts 97°
2026-05-04 10:06 49.49583 11.07819 1027 ft 4 kts 98°
2026-05-04 10:06 49.49577 11.07873 1028 ft 5 kts 98°
2026-05-04 10:06 49.49571 11.07936 1028 ft 6 kts 98°
2026-05-04 10:08 49.49582 11.08431 1033 ft 8 kts 63°
2026-05-04 10:08 49.49599 11.08512 1034 ft 7 kts 81°
2026-05-04 10:08 49.49601 11.08594 1035 ft 8 kts 91°
2026-05-04 10:08 49.49595 11.08683 1036 ft 8 kts 100°
2026-05-04 10:09 49.49585 11.08767 1037 ft 7 kts 100°
2026-05-04 10:09 49.49576 11.08845 1038 ft 7 kts 100°
2026-05-04 10:09 49.49567 11.08917 1040 ft 6 kts 100°
2026-05-04 10:09 49.49560 11.08982 1040 ft 6 kts 99°
2026-05-04 10:10 49.49553 11.09053 1042 ft 7 kts 98°
2026-05-04 10:10 49.49544 11.09146 1043 ft 9 kts 98°
2026-05-04 10:10 49.49536 11.09243 1045 ft 8 kts 97°
2026-05-04 10:10 49.49534 11.09275 1045 ft 0 kts 94°
2026-05-04 10:13 49.49534 11.09276 1045 ft 0 kts 94°
2026-05-04 10:13 49.49534 11.09327 1046 ft 10 kts 80°
2026-05-04 10:13 49.49584 11.09469 1048 ft 19 kts 54°
2026-05-04 10:14 49.49685 11.09556 1049 ft 17 kts 321°
2026-05-04 10:14 49.49715 11.09362 1047 ft 25 kts 279°
2026-05-04 10:16 49.50843 10.97969 3438 ft 201 kts 278°
2026-05-04 10:16 49.51093 10.95772 3846 ft 218 kts 285°
2026-05-04 10:16 49.51900 10.93714 4192 ft 240 kts 317°
2026-05-04 10:16 49.53400 10.92487 4661 ft 258 kts 348°
2026-05-04 10:17 49.55228 10.92402 5268 ft 270 kts
2026-05-04 10:17 49.57111 10.92524 6006 ft 276 kts
2026-05-04 10:19 49.69658 10.98087 10666 ft 311 kts 73°
2026-05-04 10:19 49.69929 11.01433 10967 ft 322 kts 95°
2026-05-04 10:19 49.69716 11.04917 11264 ft 337 kts 98°
2026-05-04 10:19 49.69465 11.08596 11542 ft 353 kts 97°
2026-05-04 10:20 49.69230 11.12449 11822 ft 368 kts 96°
2026-05-04 10:20 49.69006 11.16433 12240 ft 378 kts 98°
2026-05-04 10:20 49.68512 11.20395 12839 ft 380 kts 108°
2026-05-04 10:20 49.67586 11.24216 13487 ft 380 kts 117°
2026-05-04 10:21 49.66359 11.27810 14109 ft 383 kts 121°
2026-05-04 10:21 49.65063 11.31377 14714 ft 387 kts 121°
2026-05-04 10:21 49.63742 11.34989 15316 ft 390 kts 121°
2026-05-04 10:21 49.62413 11.38647 15914 ft 394 kts 121°
2026-05-04 10:22 49.59746 11.46046 17075 ft 400 kts 121°
2026-05-04 10:22 49.58398 11.49796 17649 ft 403 kts 120°
2026-05-04 10:22 49.57114 11.53677 18197 ft 407 kts 117°
2026-05-04 10:23 49.55987 11.57662 18731 ft 411 kts 113°
2026-05-04 10:23 49.54997 11.61815 19265 ft 415 kts 111°
2026-05-04 10:25 49.48154 11.91882 22650 ft 437 kts 111°
2026-05-04 10:25 49.47144 11.96263 23081 ft 440 kts 111°
2026-05-04 10:25 49.46114 12.00721 23512 ft 443 kts 111°
2026-05-04 10:25 49.45090 12.05136 23933 ft 446 kts 111°
2026-05-04 10:26 49.44041 12.09647 24341 ft 449 kts 111°
2026-05-04 10:26 49.42999 12.14123 24730 ft 451 kts 111°
2026-05-04 10:26 49.41934 12.18690 25106 ft 454 kts 111°
2026-05-04 10:26 49.40873 12.23231 25456 ft 457 kts 111°
2026-05-04 10:27 49.39801 12.27806 25805 ft 460 kts 111°
2026-05-04 10:27 49.38723 12.32405 26152 ft 462 kts 111°
2026-05-04 10:27 49.37634 12.37027 26472 ft 465 kts 111°
2026-05-04 10:27 49.36521 12.41744 26793 ft 467 kts 111°
2026-05-04 10:28 49.35420 12.46399 27108 ft 469 kts 111°
2026-05-04 10:28 49.34148 12.50997 27388 ft 470 kts 118°
2026-05-04 10:28 49.32494 12.55228 27672 ft 469 kts 127°
2026-05-04 10:28 49.30435 12.59128 27940 ft 468 kts 135°
2026-05-04 10:29 49.28172 12.62701 28219 ft 469 kts 136°
2026-05-04 10:29 49.25881 12.66202 28552 ft 469 kts 137°
2026-05-04 10:29 49.23595 12.69701 28922 ft 468 kts 137°
2026-05-04 10:29 49.21301 12.73231 29284 ft 468 kts 137°
2026-05-04 10:30 49.19029 12.76739 29628 ft 467 kts 137°
2026-05-04 10:30 49.16753 12.80256 29956 ft 467 kts 137°
2026-05-04 10:30 49.14479 12.83767 30280 ft 466 kts 137°
2026-05-04 10:30 49.12191 12.87292 30611 ft 466 kts 137°
2026-05-04 10:31 49.09937 12.90762 30931 ft 466 kts 137°
2026-05-04 10:31 49.07663 12.94255 31217 ft 466 kts 137°
2026-05-04 10:32 48.98085 13.19924 33122 ft 467 kts 116°
2026-05-04 10:33 48.96722 13.24351 33381 ft 467 kts 117°
2026-05-04 10:33 48.95340 13.28803 33596 ft 468 kts 117°
2026-05-04 10:33 48.85183 13.61060 34966 ft 469 kts 117°
2026-05-04 10:33 48.83756 13.65500 35015 ft 472 kts 118°
2026-05-04 10:34 48.55056 14.53958 35095 ft 474 kts 116°
2026-05-04 10:34 48.07251 15.95087 34895 ft 473 kts 117°
2026-05-04 10:35 47.99038 16.18667 35016 ft 473 kts 117°
2026-05-04 10:35 47.49726 17.55314 35181 ft 472 kts 117°
2026-05-04 10:36 47.39393 17.83091 35051 ft 472 kts 119°
2026-05-04 10:36 47.37667 17.87212 35083 ft 472 kts 123°
2026-05-04 10:36 47.33789 17.95010 35096 ft 472 kts 126°
2026-05-04 10:37 47.06020 18.48160 35058 ft 465 kts 126°
2026-05-04 10:37 46.43091 19.65787 35250 ft 456 kts 126°
2026-05-04 10:39 45.19175 21.83999 35239 ft 467 kts 126°
2026-05-04 10:39 44.86024 22.39571 35256 ft 469 kts 126°
2026-05-04 10:40 44.56988 22.87247 35168 ft 463 kts 126°
2026-05-04 10:40 44.52851 22.94032 35115 ft 461 kts 126°
2026-05-04 10:41 44.48723 23.00767 35105 ft 450 kts 127°
2026-05-04 10:41 44.44701 23.07292 35093 ft 435 kts 127°
2026-05-04 10:42 44.04098 23.72459 35112 ft 439 kts 129°
2026-05-04 10:42 43.35363 24.68634 35202 ft 447 kts 135°
2026-05-04 10:43 42.63734 25.61114 35107 ft 439 kts 134°
2026-05-04 10:44 42.20466 26.19966 35081 ft 384 kts 123°
2026-05-04 10:45 42.18903 26.22851 35056 ft 381 kts 123°
2026-05-04 10:45 42.17342 26.25728 34853 ft 383 kts 123°
2026-05-04 10:45 42.15762 26.28643 34578 ft 385 kts 122°
2026-05-04 10:45 42.14198 26.31523 34304 ft 386 kts 123°
2026-05-04 10:46 42.12608 26.34446 34029 ft 388 kts 122°
2026-05-04 10:46 42.11001 26.37399 33750 ft 389 kts 123°
2026-05-04 10:46 42.09420 26.40301 33478 ft 391 kts 122°
2026-05-04 10:46 42.07806 26.43258 33207 ft 392 kts 122°
2026-05-04 10:47 42.06187 26.46220 32927 ft 394 kts 122°
2026-05-04 10:47 42.04556 26.49203 32648 ft 395 kts 122°
2026-05-04 10:47 42.02938 26.52161 32378 ft 397 kts 122°
2026-05-04 10:47 42.01310 26.55130 32101 ft 398 kts 122°
2026-05-04 10:49 41.89681 26.76307 30149 ft 409 kts 122°
2026-05-04 10:49 41.87986 26.79358 29678 ft 415 kts 122°
2026-05-04 10:50 41.86225 26.82521 28983 ft 421 kts 122°
2026-05-04 10:51 41.74208 27.04093 24990 ft 405 kts 122°
2026-05-04 10:52 41.72536 27.07091 24514 ft 402 kts 122°
2026-05-04 10:52 41.70858 27.10099 23997 ft 400 kts 122°
2026-05-04 10:52 41.69208 27.13052 23505 ft 398 kts 122°
2026-05-04 10:54 41.57731 27.33523 19816 ft 392 kts 121°
2026-05-04 10:54 41.56113 27.36396 19288 ft 391 kts 121°
2026-05-04 10:56 41.44906 27.56228 15865 ft 375 kts 121°
2026-05-04 10:56 41.43330 27.59006 15408 ft 372 kts 121°
2026-05-04 10:56 41.41788 27.61722 14949 ft 369 kts 121°
2026-05-04 10:57 41.40257 27.64417 14494 ft 367 kts 121°
2026-05-04 10:57 41.38715 27.67137 14015 ft 365 kts 121°
2026-05-04 10:57 41.37206 27.69800 13550 ft 363 kts 121°
2026-05-04 10:57 41.35696 27.72460 13097 ft 360 kts 121°
2026-05-04 10:58 41.34192 27.75107 12631 ft 358 kts 121°
2026-05-04 10:58 41.32693 27.77741 12178 ft 356 kts 121°
2026-05-04 10:58 41.31226 27.80314 11721 ft 354 kts 121°
2026-05-04 10:58 41.29726 27.82940 11261 ft 352 kts 122°
2026-05-04 10:59 41.28268 27.85489 10812 ft 350 kts 122°
2026-05-04 10:59 41.26801 27.88047 10424 ft 335 kts 122°
2026-05-04 10:59 41.25448 27.90386 10352 ft 307 kts 121°
2026-05-04 10:59 41.24184 27.92578 10278 ft 296 kts 121°
2026-05-04 11:00 41.22943 27.94748 10229 ft 294 kts 121°
2026-05-04 11:01 41.14691 28.09127 8597 ft 287 kts 122°
2026-05-04 11:02 41.13483 28.11221 8285 ft 286 kts 122°
2026-05-04 11:02 41.12284 28.13299 7993 ft 285 kts 122°
2026-05-04 11:05 40.96206 28.41760 5001 ft 267 kts 115°
2026-05-04 11:06 40.95293 28.43905 5006 ft 268 kts 114°
2026-05-04 11:06 40.94384 28.46043 5001 ft 267 kts 114°
2026-05-04 11:06 40.93467 28.48184 5000 ft 267 kts 114°
2026-05-04 11:06 40.92546 28.50328 5002 ft 267 kts 115°
2026-05-04 11:08 40.90634 28.65201 5002 ft 237 kts 62°
2026-05-04 11:10 40.99015 28.73203 5004 ft 220 kts
2026-05-04 11:12 41.07867 28.73139 3936 ft 139 kts 359°
2026-05-04 11:12 41.08798 28.73120 3716 ft 130 kts 358°
2026-05-04 11:12 41.09692 28.73102 3532 ft 129 kts 358°
2026-05-04 11:12 41.10601 28.73083 3358 ft 129 kts 359°
2026-05-04 11:13 41.11489 28.73065 3184 ft 128 kts 359°
2026-05-04 11:13 41.12382 28.73047 3014 ft 128 kts 359°
2026-05-04 11:13 41.13266 28.73029 2847 ft 127 kts 360°
2026-05-04 11:13 41.14152 28.73012 2686 ft 127 kts 360°
2026-05-04 11:14 41.14447 28.73007 2629 ft 127 kts 359°
2026-05-04 11:16 41.22933 28.72841 1013 ft 133 kts 360°
2026-05-04 11:16 41.23826 28.72839 806 ft 122 kts
2026-05-04 11:16 41.24654 28.72811 602 ft 125 kts 356°
2026-05-04 11:17 41.25596 28.72788 510 ft 138 kts
2026-05-04 11:17 41.26537 28.72772 355 ft 130 kts
2026-05-04 11:19 41.27041 28.72985 334 ft 16 kts 179°
2026-05-04 11:19 41.26922 28.72987 334 ft 17 kts 179°
2026-05-04 11:19 41.26856 28.73086 334 ft 16 kts 91°
2026-05-04 11:19 41.26857 28.73237 334 ft 16 kts 89°
2026-05-04 11:20 41.26860 28.73375 334 ft 11 kts 88°
2026-05-04 11:20 41.26862 28.73478 334 ft 11 kts 94°
2026-05-04 11:20 41.26803 28.73534 334 ft 12 kts 180°
2026-05-04 11:20 41.26760 28.73534 334 ft 0 kts 180°